Date String (YYYY-MM-DD hh:mm:ss) UTC,Instrument flags,Ambient pressure (hPa),Sample flow (lpm),Bypass flow (lpm),Sample temperature (°C),Ambient temperature (°C),ASC tube jacket temperature (°C),LED temperature (°C),Box temperature (°C),Sample RH (%),Span deviation,Mass concentration (μg/m³),Mass concentration (μg/m³),Mass concentration (μg/m³)
DateTimeUTC,F1_M11,P_M11,Q1_M11,Q2_M11,T1_M11,T2_M11,T3_M11,T4_M11,T5_M11,U1_M11,ZSPAN_M11,X2_M11,X0_M11,X1_M11
2023-03-09 13:00:00,,0824.2,4.99,0.00,21.3,20.9,00.0,30.2,23.0,16.6,-000.4,0004.82,0008.90,0004.52
2023-03-09 13:01:00,,0824.2,4.99,0.00,21.4,22.0,00.0,30.2,23.3,16.1,-000.5,0004.31,0008.55,0004.04
2023-03-09 13:02:00,,0824.2,5.01,0.00,21.6,22.7,00.0,30.2,23.6,15.6,-000.9,0003.92,0008.07,0003.65
2023-03-09 13:03:00,,0824.2,5.00,0.00,21.6,21.9,00.0,30.3,23.4,15.2,-000.9,0003.68,0007.68,0003.45
2023-03-09 13:04:00,,0824.1,4.98,0.00,21.6,21.1,00.0,30.3,23.2,14.9,-000.7,0003.46,0007.33,0003.23
2023-03-09 13:05:00,,0824.2,5.01,0.00,21.5,20.5,00.0,30.3,23.0,14.7,-000.3,0003.23,0006.78,0002.94
2023-03-09 13:06:00,,0824.2,4.99,0.00,21.4,20.0,00.0,30.2,22.8,14.9,-000.4,0002.95,0006.10,0002.57
2023-03-09 13:07:00,,0824.3,5.01,0.00,21.3,19.6,00.0,30.2,22.6,14.8,-000.6,0002.66,0004.81,0002.24
2023-03-09 13:08:00,,0824.2,5.00,0.00,21.3,19.4,00.0,30.2,22.6,14.9,-000.6,0002.40,0004.62,0001.94
2023-03-09 13:09:00,,0824.2,5.00,0.00,21.2,19.3,00.0,30.2,22.6,14.1,-000.9,0002.19,0004.24,0001.72
2023-03-09 13:10:00,,0824.2,4.99,0.00,21.2,19.1,00.0,30.2,22.5,13.6,-000.2,0002.07,0004.03,0001.57
2023-03-09 13:11:00,,0824.3,5.01,0.00,21.1,19.8,00.0,30.1,22.6,13.6,0000.0,0001.98,0003.81,0001.50
2023-03-09 13:12:00,,0824.3,5.01,0.00,21.3,21.3,00.0,30.1,23.1,13.2,0000.0,0001.81,0002.98,0001.35
2023-03-09 13:13:00,,0824.4,5.01,0.00,21.5,22.3,00.0,30.1,23.4,12.8,0000.0,0001.62,0002.79,0001.14
2023-03-09 13:14:00,,0824.4,4.98,0.00,21.6,22.6,00.0,30.2,23.6,12.6,0000.0,0001.50,0002.78,0001.02
2023-03-09 13:15:00,,0824.4,5.01,0.00,21.6,22.0,00.0,30.3,23.5,12.6,0000.0,0001.43,0002.68,0000.97
2023-03-09 13:16:00,,0824.4,4.98,0.00,21.6,21.4,00.0,30.3,23.4,12.0,0000.0,0001.40,0002.64,0000.94
2023-03-09 13:17:00,,0824.5,4.99,0.00,21.6,20.9,00.0,30.3,23.3,12.0,0000.0,0001.36,0002.59,0000.92
2023-03-09 13:18:00,,0824.8,5.01,0.00,21.6,20.5,00.0,30.3,23.2,12.0,0000.0,0001.31,0002.57,0000.87
2023-03-09 13:19:00,,0824.5,5.00,0.00,21.6,20.2,00.0,30.3,23.2,12.0,0000.0,0001.22,0002.32,0000.81
2023-03-09 13:20:00,,0824.6,4.99,0.00,21.6,20.0,00.0,30.3,23.1,11.9,0000.0,0001.14,0002.25,0000.77
2023-03-09 13:21:00,,0824.7,5.00,0.00,21.5,19.8,00.0,30.3,23.1,11.8,0000.0,0001.04,0002.09,0000.71
2023-03-09 13:22:00,,0824.6,5.01,0.00,21.5,19.7,00.0,30.3,23.1,11.8,0000.0,0000.98,0002.12,0000.66
2023-03-09 13:23:00,,0824.7,5.02,0.00,21.5,20.0,00.0,30.3,23.1,11.8,0000.0,0000.98,0002.21,0000.64
2023-03-09 13:24:00,,0824.7,4.98,0.00,21.6,21.3,00.0,30.3,23.4,11.6,0000.0,0000.94,0002.07,0000.64
2023-03-09 13:25:00,,0824.7,4.97,0.00,21.7,22.4,00.0,30.3,23.7,11.5,0000.0,0000.92,0001.87,0000.64
2023-03-09 13:26:00,,0824.7,5.00,0.00,21.9,23.0,00.0,30.4,23.9,11.2,0000.0,0000.96,0001.99,0000.65
2023-03-09 13:27:00,,0824.8,4.96,0.00,21.9,22.5,00.0,30.4,23.8,11.1,0000.0,0001.01,0002.31,0000.65
2023-03-09 13:28:00,,0824.8,5.02,0.00,21.9,21.9,00.0,30.5,23.7,11.0,0000.0,0001.03,0002.46,0000.64
2023-03-09 13:29:00,,0824.8,5.00,0.00,21.9,21.4,00.0,30.5,23.6,11.1,0000.0,0001.01,0002.38,0000.63
2023-03-09 13:30:00,,0824.9,5.00,0.00,21.9,21.0,00.0,30.5,23.5,11.0,0000.0,0001.05,0002.52,0000.64
2023-03-09 13:31:00,,0824.9,4.99,0.00,21.9,20.7,00.0,30.5,23.5,11.1,0000.0,0001.09,0002.62,0000.64
2023-03-09 13:32:00,,0824.9,5.00,0.00,21.8,20.5,00.0,30.5,23.4,11.1,0000.0,0001.13,0002.64,0000.65
2023-03-09 13:33:00,,0825.0,5.00,0.00,21.8,20.4,00.0,30.5,23.4,11.1,0000.0,0001.18,0002.67,0000.66
2023-03-09 13:34:00,,0825.0,5.00,0.00,21.8,20.2,00.0,30.5,23.4,11.0,0000.0,0001.16,0002.54,0000.67
2023-03-09 13:35:00,,0825.0,5.00,0.00,21.8,20.1,00.0,30.5,23.3,11.0,0000.0,0001.16,0002.59,0000.67
2023-03-09 13:36:00,,0825.1,5.00,0.00,21.7,20.0,00.0,30.5,23.3,10.5,0000.0,0001.18,0002.66,0000.67
2023-03-09 13:37:00,,0825.1,5.00,0.00,21.7,20.4,00.0,30.5,23.4,10.9,0000.0,0001.17,0002.61,0000.66
2023-03-09 13:38:00,,0825.2,4.98,0.00,21.8,21.7,00.0,30.5,23.6,10.8,0000.0,0001.14,0002.34,0000.67
2023-03-09 13:39:00,,0825.2,4.97,0.00,22.0,22.8,00.0,30.5,23.9,10.7,0000.0,0001.14,0002.22,0000.67
2023-03-09 13:40:00,,0825.2,4.98,0.00,22.1,22.7,00.0,30.6,24.0,10.7,0000.0,0001.15,0002.38,0000.67
2023-03-09 13:41:00,,0825.3,5.00,0.00,22.1,22.2,00.0,30.6,23.9,10.7,0000.0,0001.13,0002.34,0000.67
2023-03-09 13:42:00,,0825.3,5.01,0.00,22.1,21.7,00.0,30.6,23.8,10.7,0000.0,0001.08,0002.15,0000.67
2023-03-09 13:43:00,,0825.3,5.00,0.00,22.0,21.3,00.0,30.7,23.7,10.8,0000.0,0001.10,0002.34,0000.67
2023-03-09 13:44:00,,0825.3,5.00,0.00,22.0,21.0,00.0,30.6,23.7,10.7,0000.0,0001.08,0002.32,0000.66
2023-03-09 13:45:00,,0825.3,5.00,0.00,22.0,20.7,00.0,30.6,23.6,10.7,0000.0,0001.09,0002.32,0000.66
2023-03-09 13:46:00,,0825.4,5.01,0.00,22.0,20.6,00.0,30.6,23.6,10.6,0000.0,0001.09,0002.25,0000.66
2023-03-09 13:47:00,,0825.4,4.99,0.00,22.0,20.5,00.0,30.6,23.6,10.8,0000.0,0001.07,0002.20,0000.66
2023-03-09 13:48:00,,0825.4,5.00,0.00,21.9,20.4,00.0,30.6,23.6,10.4,0000.0,0001.08,0002.56,0000.66
2023-03-09 13:49:00,,0825.4,5.01,0.00,21.9,20.3,00.0,30.6,23.6,10.4,0000.0,0001.10,0004.04,0000.66
2023-03-09 13:50:00,,0825.4,4.99,0.00,21.9,20.3,00.0,30.6,23.5,10.3,0000.0,0001.08,0004.23,0000.66
2023-03-09 13:51:00,,0825.4,5.00,0.00,21.9,20.3,00.0,30.6,23.5,10.4,0000.0,0001.07,0005.09,0000.66
2023-03-09 13:52:00,,0825.4,5.00,0.00,21.9,21.5,00.0,30.6,23.8,10.2,0000.0,0001.03,0004.88,0000.66
2023-03-09 13:53:00,,0825.4,5.00,0.00,22.1,22.8,00.0,30.6,24.1,10.2,0000.0,0001.01,0004.84,0000.66
2023-03-09 13:54:00,,0825.4,5.00,0.00,22.2,23.3,00.0,30.7,24.2,10.1,0000.0,0001.04,0004.81,0000.67
2023-03-09 13:55:00,,0825.4,4.99,0.00,22.3,22.7,00.0,30.8,24.1,10.1,0000.0,0001.01,0004.73,0000.67
2023-03-09 13:56:00,,0825.3,5.00,0.00,22.2,22.1,00.0,30.8,24.0,09.8,0000.0,0000.99,0004.68,0000.66
2023-03-09 13:57:00,,0825.4,5.02,0.00,22.2,21.7,00.0,30.8,23.9,09.1,0000.0,0001.01,0004.73,0000.66
2023-03-09 13:58:00,,0825.4,5.00,0.00,22.2,21.3,00.0,30.8,23.9,09.3,0000.0,0001.07,0004.85,0000.67
2023-03-09 13:59:00,,0825.5,5.01,0.00,22.2,21.1,00.0,30.8,23.8,09.3,0000.0,0001.06,0004.88,0000.67
